EW6230 Weather Reports


time (UTC)temp
C
wind
direction
speed
KPH
gust
KPH
rain 1hr
cm
rain 24hr
cm
rain mn
cm
humidity
%
barometer
mb
20260508104545 7 191 0.0 0.0 0.00 0.00 0.00 1 1013.1
20260508103040 7 191 0.0 0.0 0.00 0.00 0.00 1 1013.0
20260508101538 7 191 0.0 0.0 0.00 0.00 0.00 1 1013.1
20260508100033 8 191 0.0 0.0 0.00 0.00 0.00 1 1013.0
20260508094529 8 191 0.0 0.0 0.00 0.00 0.00 1 1013.0
20260508093024 8 191 0.0 0.0 0.00 0.00 0.00 1 1012.9
20260508091520 8 191 0.0 0.0 0.00 0.00 0.00 1 1012.7
20260508090017 8 169 0.0 0.0 0.00 0.00 0.00 1 1012.6
20260508084511 8 169 0.0 0.0 0.00 0.00 0.00 1 1012.8
20260508083020 8 169 0.0 0.0 0.00 0.00 0.00 1 1012.7
20260508081606 8 169 0.0 0.0 0.00 0.00 0.00 1 1012.6
20260508080101 8 169 0.0 0.0 0.00 0.00 0.00 1 1012.6
20260508074554 8 169 0.0 0.0 0.00 0.00 0.00 1 1012.6
20260508073056 8 169 0.0 0.0 0.00 0.00 0.00 1 1012.8
20260508071549 8 169 0.0 0.0 0.00 0.00 0.00 1 1012.7
20260508070044 8 169 0.0 0.0 0.00 0.00 0.00 1 1012.9
20260508064555 8 169 0.0 0.0 0.00 0.00 0.00 1 1013.1
20260508063036 8 169 0.0 0.0 0.00 0.00 0.00 1 1013.2
20260508061531 8 168 0.0 0.0 0.00 0.00 0.00 1 1013.1
20260508060024 8 169 0.0 0.0 0.00 0.00 0.00 1 1013.2
20260508054520 8 169 0.0 0.0 0.00 0.00 0.00 1 1013.4
20260508053014 8 169 0.0 0.0 0.00 0.00 0.00 1 1013.4
20260508051509 8 169 0.0 0.0 0.00 0.00 0.00 1 1013.3
20260508050005 8 169 0.0 0.0 0.00 0.00 0.00 1 1013.4
20260508044504 9 169 0.0 0.0 0.00 0.00 0.00 1 1013.4
20260508043101 9 169 0.0 0.0 0.00 0.00 0.00 1 1013.4
20260508041603 10 169 0.0 0.0 0.00 0.00 0.00 1 1013.4
20260508040053 10 158 0.0 0.0 0.00 0.00 0.00 1 1013.4
20260508034551 10 158 0.0 0.0 0.00 0.00 0.00 8 1013.4
20260508033042 10 158 0.0 0.0 0.00 0.00 0.00 11 1013.6
20260508031537 11 157 0.0 0.0 0.00 0.00 0.00 20 1013.6
20260508030035 11 157 0.0 0.0 0.00 0.00 0.00 26 1013.6
20260508024530 11 157 0.0 0.0 0.00 0.00 0.00 29 1013.7
20260508023033 11 157 0.0 0.0 0.00 0.00 0.00 34 1013.8
20260508021519 11 156 0.0 0.0 0.00 0.00 0.00 36 1013.9
20260508020016 12 156 0.0 0.0 0.00 0.00 0.00 38 1014.2
20260508014511 12 157 0.0 0.0 0.00 0.00 0.00 44 1014.3
20260508013007 12 156 0.0 0.0 0.00 0.00 0.00 49 1014.2
20260508011501 12 157 0.0 0.0 0.00 0.00 0.00 51 1014.5
20260508010107 13 156 0.0 0.0 0.00 0.00 0.00 55 1014.5
20260508004602 13 210 0.0 0.0 0.00 0.00 0.00 54 1014.4
20260508003101 13 210 0.0 0.0 0.00 0.00 0.00 57 1014.6
20260508001546 14 210 0.0 1.6 0.00 0.00 0.00 60 1014.6
20260508000040 15 122 0.0 0.0 0.00 0.00 0.00 62 1014.6
20260507234536 16 122 0.0 1.6 0.00 0.00 0.00 61 1014.6
20260507233032 16 122 0.0 1.6 0.00 0.00 0.00 61 1014.6
20260507231527 16 32 0.0 3.2 0.00 0.00 0.00 61 1014.7
20260507230023 16 249 0.0 0.0 0.00 0.00 0.00 61 1014.9
20260507224519 16 248 0.0 0.0 0.00 0.00 0.00 61 1015.0
20260507223014 16 244 0.0 0.0 0.00 0.00 0.00 61 1015.1
20260507221509 17 227 0.0 1.6 0.00 0.00 0.00 60 1015.2
20260507220005 17 111 0.0 1.6 0.00 0.00 0.00 59 1015.3
20260507214500 17 116 0.0 1.6 0.00 0.00 0.00 61 1015.4
20260507213108 17 337 0.0 1.6 0.00 0.00 0.00 60 1015.5
20260507211553 16 49 0.0 1.6 0.00 0.00 0.00 61 1015.7
20260507210053 17 36 0.0 1.6 0.00 0.00 0.00 61 1015.9
20260507204556 17 333 0.0 1.6 0.00 0.00 0.00 61 1016.1
20260507203040 16 46 0.0 1.6 0.00 0.00 0.00 62 1016.3
20260507201539 16 358 0.0 1.6 0.00 0.00 0.00 61 1016.5
20260507200036 16 301 0.0 1.6 0.00 0.00 0.00 61 1016.5
20260507194526 16 212 0.0 4.8 0.00 0.00 0.00 61 1016.5
20260507193027 16 193 0.0 4.8 0.00 0.00 0.00 62 1016.6
20260507191517 15 352 0.0 1.6 0.00 0.00 0.00 62 1016.7
20260507190028 15 155 0.0 4.8 0.00 0.00 0.00 62 1016.7
20260507184508 15 3 0.0 1.6 0.00 0.00 0.00 62 1016.8
20260507183011 15 6 0.0 1.6 0.00 0.00 0.00 62 1016.8
20260507181559 15 27 0.0 1.6 0.00 0.00 0.00 62 1016.8
20260507180104 15 304 0.0 3.2 0.00 0.00 0.00 62 1016.8
20260507174552 15 296 0.0 1.6 0.00 0.00 0.00 62 1016.9
20260507173053 14 343 0.0 1.6 0.00 0.00 0.00 62 1016.9
20260507171544 15 290 0.0 0.0 0.00 0.00 0.00 62 1016.9
20260507170039 15 266 0.0 0.0 0.00 0.00 0.00 62 1016.9
20260507164537 14 266 0.0 0.0 0.00 0.00 0.00 62 1016.9
20260507163031 13 350 0.0 1.6 0.00 0.00 0.00 62 1017.1
20260507161527 13 11 0.0 0.0 0.00 0.00 0.00 62 1017.2
20260507160021 14 12 0.0 0.0 0.00 0.00 0.00 62 1017.2
20260507154516 13 12 0.0 0.0 0.00 0.00 0.00 52 1017.3
20260507153012 13 6 0.0 0.0 0.00 0.00 0.00 1 1017.3
20260507151507 11 5 0.0 0.0 0.00 0.00 0.00 1 1017.4
20260507150003 8 5 0.0 0.0 0.00 0.00 0.00 1 1017.4
20260507144559 -17 0.0 0.0 0.00 0.00 0.00 1017.4
20260507143054 -17 0.0 0.0 0.00 0.00 0.00 1017.3
20260507141554 -17 0.0 0.0 0.00 0.00 0.00 1017.4
20260507140104 -17 0.0 0.0 0.00 0.00 0.00 1017.2
20260507134541 -17 0.0 0.0 0.00 0.00 0.00 1017.1
20260507133037 -17 0.0 0.0 0.00 0.00 0.00 1017.1
20260507131535 -17 0.0 0.0 0.00 0.00 0.00 1017.1
20260507130027 -17 0.0 0.0 0.00 0.00 0.00 1017.1
20260507124525 5 1 0.0 0.0 0.00 0.00 0.00 1 1017.1
20260507123019 6 5 0.0 1.6 0.00 0.00 0.00 1 1017.2
20260507121514 6 5 0.0 1.6 0.00 0.00 0.00 1 1017.2
20260507120010 6 5 0.0 1.6 0.00 0.00 0.00 1 1017.3
20260507114506 6 5 0.0 0.0 0.00 0.00 0.00 1 1017.3
20260507113002 7 5 0.0 1.6 0.00 0.00 0.00 1 1017.4
20260507111557 7 248 0.0 0.0 0.00 0.00 0.00 1 1017.3
20260507110053 7 248 0.0 1.6 0.00 0.00 0.00 1 1017.2